sat.trackr.live / text

‹ back to catalog

LEMUR-2-DEVERILL-M-T

NORAD 57391 · 2023-100F

PAYLOAD ACTIVE UNKNOWN

§ Identity

Operator
Country
US
Launch date
2023-07-18
Launch site
RLLB
Launch vehicle
Mass (kg)
RCS (m²)

Purposes: earth_obs

External: N2YO · Heavens-Above · Gunter

§ Orbital elements

Epoch: 2026-09-19T03:12:55.100448Z

Period
93.25 min
Inclination
99.4371°
Eccentricity
0.0005966
Mean motion
15.44191017 rev/d
Perigee alt
429.7 km
Apogee alt
437.8 km
Semi-major
6,811.9 km
B*
5.2437e-4
RAAN
328.3574°
Arg perigee
82.8807°
Mean anomaly
277.3113°
Rev number
17,572

§ Raw data

LEMUR-2-DEVERILL-M-T1 57391U 23100F   26262.13397107  .00023993  00000+0  52437-3 0  99992 57391  99.4371 328.3574 0005966  82.8807 277.3113 15.44191017175720

JSON: /api/v1/satellites/57391 · /tle

For live sub-satellite position, see the globe view (requires WebGL).

§ Visibility from observer

Set your observer location to see the next 7 days of passes ≥ 10°. The values pass through the URL so the page stays shareable.

No JS? Fill the form by hand. The geolocation button needs JavaScript.